Regional Weather Roundup
Issued by NWS

Home | Current Version | Previous Version | Text Only | Print | Product List | Glossary On
Versions: 1 2 3 4 5 6 7 8 9 10 11 12 13 14 15 16 17 18 19 20 21 22 23 24 25 26 27 28 29 30 31 32 33 34 35 36 37 38 39 40 41 42 43 44 45 46 47 48 49 50
000
ASUS43 KLSX 030607
RWRMO

WEATHER SUMMARY FOR MISSOURI
NATIONAL WEATHER SERVICE SPRINGFIELD MO
100 AM CDT WED SEP 03 2014

NOTE: "FAIR" INDICATES FEW OR NO CLOUDS BELOW 12,000 FEET WITH NO
       SIGNIFICANT WEATHER AND/OR OBSTRUCTIONS TO VISIBILITY.
       CURRENT SKY AND/OR WEATHER CONDITIONS ARE NOT AVAILABLE FOR
       CHILLICOTHE AND FARMINGTON.

MOZ001>031-035>038-043-044-053-054-030700-
...NORTHERN AND WESTERN MISSOURI...

CITY           SKY/WX    TMP DP  RH WIND       PRES   REMARKS
KANSAS CTY INT FAIR      71  68  90 SE9       29.98S
6HR MIN TEMP:  66; 6HR MAX TEMP:  78;

KANSAS C DTWN  FAIR      75  69  81 S9        29.97F
6HR MIN TEMP:  73; 6HR MAX TEMP:  82;

LEE`S SUMMIT   FAIR      71  68  90 S6        29.99F
6HR MIN TEMP:  71; 6HR MAX TEMP:  79;

ST JOSEPH      FAIR      68  66  93 S5        29.96F
6HR MIN TEMP:  65; 6HR MAX TEMP:  80;

CHILLICOTHE      N/A     66  64  93 CALM      30.00S
6HR MIN TEMP:  66; 6HR MAX TEMP:  81;

KIRKSVILLE     FAIR      64  62  93 CALM      30.01S
6HR MIN TEMP:  61; 6HR MAX TEMP:  78;


$$
MOZ066>068-077>081-088>096-101>105-030700-
...SOUTHWEST MISSOURI...

CITY           SKY/WX    TMP DP  RH WIND       PRES   REMARKS
SPRINGFIELD    FAIR      69  66  90 SE6       30.03S
6HR MIN TEMP:  68; 6HR MAX TEMP:  78;

JOPLIN         MOCLDY    74  68  81 SE8       30.00S
6HR MIN TEMP:  72; 6HR MAX TEMP:  79;


$$
MOZ032>034-039>042-045>050-055>058-069>072-030700-
...CENTRAL MISSOURI...

CITY           SKY/WX    TMP DP  RH WIND       PRES   REMARKS
COLUMBIA       FAIR      66  66 100 S6        30.02F FOG
6HR MIN TEMP:  65; 6HR MAX TEMP:  80;

JEFFERSON CITY FOG       67  66  97 E5        30.02S VSB 1/4
6HR MIN TEMP:  66; 6HR MAX TEMP:  81;

ROLLA          FAIR      67  64  90 S7        30.04S
6HR MIN TEMP:  64; 6HR MAX TEMP:  76;

SEDALIA        FAIR      67  65  93 S8        30.02S FOG
6HR MIN TEMP:  67; 6HR MAX TEMP:  79;

WHITEMAN AFB   CLEAR     68  67  97 S7        30.00F
OSAGE BEACH    FAIR      66  64  94 SE3       30.04S

$$
MOZ051-052-059>065-030700-
...EAST CENTRAL MISSOURI...

CITY           SKY/WX    TMP DP  RH WIND       PRES   REMARKS
ST LOUIS INTL  FAIR      72  68  87 CALM      30.03F
6HR MIN TEMP:  72; 6HR MAX TEMP:  80;

SPIRIT OF STL  FOG       66  66 100 CALM      30.01F VSB 1/2
6HR MIN TEMP:  66; 6HR MAX TEMP:  79; 6HR PCP:  0.01;

ST CHARLES     FAIR      67  66  97 CALM      30.02S FOG
6HR MIN TEMP:  66; 6HR MAX TEMP:  80;


$$
MOZ072>076-082>087-097>100-106>115-030700-
...SOUTH CENTRAL AND SOUTHEAST MISSOURI...

CITY           SKY/WX    TMP DP  RH WIND       PRES   REMARKS
CAPE GIRARDEAU FAIR      67  66  97 CALM      30.01S FOG
6HR MIN TEMP:  67; 6HR MAX TEMP:  79;

FARMINGTON       N/A     64  63  94 CALM      30.05F VSB 3/4
6HR MIN TEMP:  64; 6HR MAX TEMP:  75;

POPLAR BLUFF   FAIR      68  64  87 CALM      30.01S
6HR MIN TEMP:  68; 6HR MAX TEMP:  81;

WEST PLAINS    FAIR      66  32  28 CALM      30.08S
6HR MIN TEMP:  65; 6HR MAX TEMP:  76;


$$



USA.gov is the U.S. government's official web portal to all federal, state and local government web resources and services.